Location: Nairn
(57.5833°N, 3.8667°W)
Time: 17:06:05
(UTC+00:00)

Tiros 1 - Pass Details

Date: 28 November 2020
Orbit: 630 x 663 km, 48.4° (Epoch: 21 January)

Event Time Altitude Azimuth Distance (km) Brightness Sun altitude
Rises 16:26:06 0° 216° (SW) 2,988 12.1 -5.9°
Reaches altitude 10° 16:29:04 10° 198° (SSW) 2,075 10.6 -6.2°
Maximum altitude 16:32:17 18° 156° (SSE) 1,601 9.3 -6.6°
Drops below altitude 10° 16:35:30 10° 113° (ESE) 2,070 9.4 -7.0°
Enters shadow 16:37:42 - 98° (E) 2,727 9.9 -7.2°
Sets 16:38:28 0° 95° (E) 2,978 - -7.3°
